カタログに戻る

CZ-4C Y49 STAGE 3

運用中LEO
NORAD 56158·ROCKET BODY·🇨🇳 China
この衛星名は、まだ公式ソースで確認されていません。

打ち上げ Mar 31, 2023 から Jiuquan Satellite Launch Center

Loading…

次のパス (今後24時間)

TLE

最新Source: Space-Track

元期: Sep 14, 2026, 14:58 UTC

1 56158U 23048B   26257.62378963 -.00000072  00000-0  23276-4 0  9992
2 56158  63.4032  95.6946 0227944  24.5022 336.6647 13.68548051172889

AllMySatでCZ-4C Y49 STAGE 3をリアルタイム追跡

Download on the App Store